sat.trackr.live / text

‹ back to catalog

STARLINK-35716

NORAD 67191 · 2025-303AE

PAYLOAD ACTIVE UNKNOWN

§ Identity

Operator
Country
US
Launch date
2025-12-17
Launch site
AFETR
Launch vehicle
Mass (kg)
RCS (m²)

Purposes: comms

External: N2YO · Heavens-Above · Gunter

§ Orbital elements

Epoch: 2026-09-19T13:59:10.413888Z

Period
94.27 min
Inclination
43.0010°
Eccentricity
0.0000865
Mean motion
15.27574921 rev/d
Perigee alt
482.5 km
Apogee alt
483.7 km
Semi-major
6,861.2 km
B*
4.1589e-4
RAAN
296.1310°
Arg perigee
278.7168°
Mean anomaly
81.3586°
Rev number
4,238

§ Raw data

STARLINK-357161 67191U 25303AE  26262.58275942  .00011198  00000+0  41589-3 0  99962 67191  43.0010 296.1310 0000865 278.7168  81.3586 15.27574921 42385

JSON: /api/v1/satellites/67191 · /tle

For live sub-satellite position, see the globe view (requires WebGL).

§ Visibility from observer

Set your observer location to see the next 7 days of passes ≥ 10°. The values pass through the URL so the page stays shareable.

No JS? Fill the form by hand. The geolocation button needs JavaScript.